www.pogodaiklimat.ru
ПОГОДА в Ньюберри
Время
и дата
21:35 26.10
21:55 26.10
22:15 26.10
22:35 26.10
22:55 26.10
23:15 26.10
23:35 26.10
23:55 26.10
00:15 27.10
00:35 27.10
00:55 27.10
01:15 27.10
01:35 27.10
01:55 27.10
02:15 27.10
02:35 27.10
02:55 27.10
03:15 27.10
03:35 27.10
03:55 27.10
04:15 27.10
04:35 27.10
04:55 27.10
05:15 27.10
05:35 27.10
05:55 27.10
06:15 27.10
06:35 27.10
06:55 27.10
07:15 27.10
07:35 27.10
07:55 27.10
08:15 27.10
08:35 27.10
08:55 27.10
09:15 27.10
09:35 27.10
09:55 27.10
10:15 27.10
10:35 27.10
10:55 27.10
11:15 27.10
11:35 27.10
11:55 27.10
12:15 27.10
12:35 27.10
12:55 27.10
13:15 27.10
Ветер
(напр.,м/с)
Видим. Явления Облачность Т
(С)
Тd
(С)
f
(%)
Тe
(С)
Тes
(С)
Комфортность P
(гПа)
Po
(гПа)
Тmin
(С)
Tmax
(С)
R
(мм)
R24
(мм)
S
(см)
СЗ 1 16 км 10/10 1950 м -0.2 -2.5 84 -4 -4 993.1
СЗ 1 16 км 10/10 1950 м -0.1 -3.0 81 -4 -4 993.1
СЗ 1 16 км 8/8 1650 м -0.2 -3.0 81 -4 -4 993.1
штиль 0 16 км 5/5 1650 м -0.3 -2.8 83 -1 -1 993.5
СЗ 1 16 км ясно -0.3 -3.0 82 -4 -4 993.5
СЗ 1 16 км ясно -0.5 -2.7 85 -4 -4 993.5
СЗ 1 16 км ясно -0.8 -2.8 86 -5 -5 993.5
штиль 0 16 км ясно -0.8 -2.8 86 -2 -2 993.1
штиль 0 16 км ясно -1.2 -2.3 92 -2 -2 993.5
СЗ 1 16 км 8/8 1800 м -0.8 -2.6 88 -5 -5 993.5
СЗ 1 16 км 10/10 1800 м -0.6 -2.7 86 -4 -4 993.5 -1.2 +0.1
штиль 0 16 км 5/5 1800 м -0.7 -2.7 86 -2 -2 993.5
штиль 0 16 км ясно -3.0 -3.6 96 -4 -4 993.5
штиль 0 16 км ясно -2.5 -2.7 99 -4 -4 993.1
штиль 0 16 км ясно -2.2 -2.9 95 -4 -4 993.5
З 1 16 км 5/5 1500 м -2.0 -2.7 95 -6 -6 993.5
З 1 16 км ясно -2.2 -2.8 96 -6 -6 993.1
З 1 16 км 5/5 1650 м -1.8 -2.5 95 -7 -7 993.1
З 1 16 км 10/10 1650 м -1.8 -2.3 96 -6 -6 992.8
З 1 16 км 8/8 1650 м -1.8 -2.6 94 -6 -6 992.8
З 1 16 км 8/8 1650 м -1.9 -3.0 92 -6 -6 992.8
З 1 16 км 5/5 1650 м -1.8 -3.2 90 -6 -6 992.8
З 1 16 км ясно -1.8 -3.5 88 -6 -6 992.8
З 1 16 км 5/5 1500 м -2.0 -3.5 89 -6 -6 992.5
З 1 16 км 5/5 1500 м -2.0 -3.9 87 -6 -6 992.5
З 1 16 км 8/8 1500 м -2.0 -3.9 87 -6 -6 992.5
З 1 16 км 10/10 1500 м -2.0 -4.5 83 -6 -6 992.1
З 1 16 км 8/8 1500 м -2.0 -4.8 81 -6 -6 992.1
З 1 16 км 8/8 1440 м -2.2 -4.5 84 -6 -6 991.8 -3.4 -0.6
З 1 16 км 8/8 1350 м -2.3 -4.7 84 -6 -6 991.8
З 1 16 км 10/10 1350 м -2.2 -5.3 79 -7 -7 991.8
З 1 16 км 10/10 1290 м -2.1 -5.9 75 -7 -7 991.8
З 1 16 км 10/10 1230 м -2.1 -6.1 74 -7 -7 992.1
З 1 16 км 10/10 1230 м -2.0 -6.2 73 -7 -7 991.8
З 1 16 км 10/10 1230 м -2.0 -5.4 78 -7 -7 991.8
З 2 16 км 10/10 1170 м -1.7 -5.3 76 -7 -7 991.8
З 1 16 км 10/10 1110 м -1.7 -5.9 73 -6 -6 991.5
З 1 16 км 10/10 1110 м -1.5 -6.0 71 -6 -6 991.2
ЮЗ 1 16 км 10/10 1110 м -1.3 -5.8 71 -5 -5 990.8
З 1 16 км 10/10 1110 м -1.0 -6.1 68 -4 -4 990.5
З 1 16 км 10/10 1170 м -0.5 -5.5 69 -5 -5 990.2
ЮЗ 1 16 км 10/10 1320 м -0.1 -6.1 64 -4 -4 990.2
ЮЗ 2 16 км 5/5 1320 м +0.6 -5.9 62 -4 -3 990.2
З 2 16 км ясно +1.0 -6.3 58 -4 -1 990.2
ЮЗ 2 16 км 8/8 1140 м +1.1 -6.4 57 -4 -3 989.8
ЮЗ 2 16 км 5/5 1140 м +1.2 -6.0 59 -3 -2 989.5
ЮЗ 2 16 км 5/5 1140 м +1.6 -5.6 59 -3 -1 989.5 -2.4 +1.7
ЮЗ 2 16 км ясно +2.1 -5.3 58 -3 0 988.9
Местоположение метеостанции Luce County Airport: широта 46.3111 долгота -85.4572 высота над уровнем моря 265 м.
В архиве по умолчанию представлена погода в Ньюберри за последние 1-2 суток. Обновление информации о фактической погоде в базе происходит ежечасно! Архивные данные за месяц целиком и за предыдущие месяцы Вы можете получить, выбрав интересующий диапазон дат из раскрывающегося списка и нажав кнопку "Ввод!".
Внимание! Архив погоды МЕТАР в базе сайта по станциям, не включенным в климатический монитор, хранится не более 60 дней. Нет смысла пытаться выбрать более раннюю дату.
*Определитесь, кто Вы:
Внимание! Время в таблицах - местное (без учета летнего времени). Для получения всемирного времени необходимо вычесть поправку, которая равна -5 ч.
Смотрите также архив погоды в соседних городах и на ближайших метеорологических станциях:
Партнеры нашего сайта:      
Пояснения к столбцам:
  • Ветер - указаны скорость ветра в м/с - средняя за 10 мин, порывы в срок и между сроками (в фигурных скобках) и направление, откуда дует ветер: С - северный,
  • СВ - северо-восточный, В - восточный, ЮВ - юго-восточный, Ю - южный, ЮЗ - юго-западный, З - западный, СЗ - северо-западный.
  • Видимость - горизонтальная дальность видимости в метрах или километрах. При видимости от 1 до 10 км при отсутствии осадков обычно наблюдается дымка, при ухудшении видимости до 1 км и менее - туман. В сухую погоду видимость может ухудшаться дымом, пылью или мглою.
  • Явления - указаны атмосферные явления, наблюдавшиеся в срок или в последний час перед сроком; фигурными скобками обозначены явления, наблюдавшиеся между сроками (за 1-3 часа до срока); квадратными скобками обозначены град или гололедные отложения с указанием их диаметра в мм.
  • Облачность - указаны через наклонную черту общая и нижняя облачность в баллах и высота нижней границы облаков в метрах; квадратными скобками обозначены формы облаков: Ci - перистые, Cs - перисто-слоистые, Cc - перисто-кучевые, Ac - высококучевые, As - высокослоистые, Sc - слоисто-кучевые, Ns - слоисто-дождевые, Cu - кучевые, Cb - кучево-дождевые. Подробнее классификацию облаков см. в Атласе облаков (PDF).
  • T - Температура воздуха - температура, измеренная на высоте 2 м над землей.
  • Td - Температура точки росы - температура, при понижении до которой содержащийся в воздухе водяной пар достигнет насыщения.
  • f - Относительная влажность воздуха - влажноcть воздуха, измеренная на высоте 2 м над землей.
  • Te - Эффективная температура - температура, которую ощущает одетый по сезону человек в тени. Характеристика душности погоды. При расчете учитывается влияние влажности воздуха и скорости ветра на теплоощущения человека.
  • Tes - Эффективная температура на солнце - температура, которую ощущает человек, с поправкой на солнечный нагрев. Характеристика знойности погоды. Зависит от высоты солнца над горизонтом, облачности и скорости ветра. Ночью, в пасмурную погоду, а также при ветре 12 м/с и более поправка равна нулю.
  • P - Атмосферное давление - приведенное к уровню моря атмосферное давление.
  • Po - Атмосферное давление - измеренное на уровне метеостанции атмосферное давление.
  • Tmin - Минимальная температура - минимум температуры воздуха на высоте 2 м над землей.
  • Tmax - Максимальная температура - максимум температуры воздуха на высоте 2 м над землей.
  • R - Количество осадков - Количество выпавших осадков за период времени, мм. При наведении курсора мыши на число - период времени, за который выпало указанное количество осадков.
  • R24 - Количество осадков - Количество выпавших осадков за 24 часа, мм.
  • S - Снежный покров - Высота снежного покрова, см. При наведении курсора мыши на число - состояние снежного покрова и степень покрытия местности в баллах.